一网星座-0217星 (ONEWEB-0217 )

导读

ONEWEB-0217是英国OneWeb公司低轨宽带卫星星座中的组网卫星,于2021年4月25日发射入轨,属于OneWeb第六批次组网卫星。卫星重约147.5公斤,运行在1200公里高度的近地轨道,配备Ku与Ka波段天线,采用氙等离子推力器,设计寿命超7年,旨在提供全球低时延宽带互联网接入服务,服务航空、海事及应急通信等场景,支撑OneWeb全球卫星互联网组网建设。

基本信息
目录编号:
48245
目录名称:
ONEWEB-0217
国际标识:
2021-031AM
轨道中心:
EARTH
卫星名称:
一网星座-0217星
卫星全名:
一网星座-0217星 (ONEWEB-0217 )
卫星状态:
在轨 (已飞行1876 天)
发射日期:
2021-04-25 UTC
国别 :
英国 (GB)
星等 :
--
轨道信息
数据来源 国际轨道数据 AOE轨道数据
星历时间 2026-06-14T04:47:27+0800
13小时前
查看轨道信息
2026-06-11T06:00:00+0800
3天前
查看轨道信息
半长轴 7583.931km 7583.917km
偏心率 0.0001956 0.0001653
轨道倾角 87.897° 87.895°
近地点辐角 111.231° 90.749°
升交点赤经 290.358° 290.946°
平近点角 248.903° 359.159°
近地点 1204.31km 1204.526km
远地点 1207.278km 1207.034km
周期 109.547分钟 109.547分钟
每日圈数 13.145021 13.145057
详细信息
平衡模式:
三轴稳定
覆盖范围:
全球
运营商:
一网卫星公司
运营商所在国:
英国
制造商(研发单位):
一网卫星公司
制造商所在国:
英国
使用方式:
暂无
卫星简介
OneWeb卫星网络由648颗重约125公斤的微型卫星组成,运行在1200公里的轨道上。 每颗卫星都能够提供至少每秒8千兆位的吞吐量,以使用其高吞吐量的Ku频段有效载荷为家庭和移动平台提供互联网接入。该卫星仍在工作。
2D轨道图
3D轨道图
轨道高度分析图
轨道倾角分析图
轨道综合分析图
查看轨道综合分析图